Weather History for Sheridan, WY

Change the Weather History Date:

Friday, October 4, 2013

  Actual Average Record
Temperature  
Mean Temperature 33 °F 50 °F  
Max Temperature 35 °F 65 °F 91 °F (1963)
Min Temperature 30 °F 35 °F 25 °F (1964)
Degree Days  
Heating Degree Days 32 15  
Month to date heating degree days 89 58  
Since 1 July heating degree days 244 361  
Cooling Degree Days 0 0  
Month to date cooling degree days 0 0  
Year to date cooling degree days 592 418  
Moisture  
Dew Point 29 °F    
Average Humidity 85    
Maximum Humidity 100    
Minimum Humidity 70    
Precipitation  
Precipitation 0.23 in 0.06 in 1.14 in (2005)
Month to date precipitation 1.55 0.24  
Year to date precipitation 15.80 11.72  
Sea Level Pressure  
Sea Level Pressure 30.34 in    
Wind  
Wind Speed 19 mph (WNW)    
Max Wind Speed 28 mph    
Max Gust Speed 33 mph    
Visibility 3 miles    
Events Fog , Snow    
T = Trace of Precipitation, MM = Missing Value Source: NWS Daily Summary

Daily Weather History Graph

Daily Weather History Graph

Search for Another Location

Airport:

Trip Planner

Search our weather history database for the weather conditions in past years. The results will help you decide how hot, cold, wet, or windy it might be!

Date:

Astronomy

Oct. 04, 2013 Rise Set
Actual Time 7:09 AM MDT 6:42 PM MDT
Civil Twilight 6:40 AM MDT 7:11 PM MDT
Nautical Twilight 6:06 AM MDT 7:45 PM MDT
Astronomical Twilight 5:32 AM MDT 8:19 PM MDT
Moon 6:49 AM MDT (10/4) 6:24 PM MDT (10/4)
Length of Visible Light 12h 30m
Length of Day
11h 32m
Waning Crescent, 0% of the Moon is Illuminated
Oct 4
Waning Crescent
Oct 4
New
Oct 11
First Quarter
Oct 18
Full
Oct 26
Last Quarter

Hourly Weather History & Observations

Time (MDT) Temp. Windchill Dew Point Humidity Pressure Visibility Wind Dir Wind Speed Gust Speed Precip Events Conditions
12:08 AM 32.0 °F 20.5 °F 30.2 °F 93% 30.19 in 1.0 mi NW 18.4 mph - 0.01 in Snow Light Snow
12:15 AM 32.0 °F 20.5 °F 30.2 °F 93% 30.19 in 0.8 mi WNW 18.4 mph - 0.02 in Snow Light Snow
12:17 AM 32.0 °F 20.8 °F 30.2 °F 93% 30.20 in 1.0 mi WNW 17.3 mph - 0.02 in Snow Light Snow
12:34 AM 32.0 °F 21.2 °F 30.2 °F 93% 30.20 in 0.8 mi WNW 16.1 mph - 0.04 in Snow Light Snow
12:53 AM 32.0 °F 21.2 °F 30.9 °F 96% 30.27 in 1.0 mi WNW 16.1 mph - 0.06 in Snow Light Snow
1:16 AM 32.0 °F 21.2 °F 30.2 °F 93% 30.21 in 0.8 mi WNW 16.1 mph - 0.03 in Snow Light Snow
1:36 AM 32.0 °F 20.5 °F 30.2 °F 93% 30.21 in 0.8 mi NW 18.4 mph - 0.05 in Snow Light Snow
1:53 AM 32.0 °F 19.8 °F 30.9 °F 96% 30.29 in 1.0 mi NW 20.7 mph - 0.07 in Snow Light Snow
2:26 AM 32.0 °F 19.8 °F 30.2 °F 93% 30.22 in 0.8 mi WNW 20.7 mph 25.3 mph 0.02 in Snow Light Snow
2:53 AM 32.0 °F 19.8 °F 30.9 °F 96% 30.29 in 0.8 mi WNW 20.7 mph - 0.04 in Snow Light Snow
3:25 AM 32.0 °F 19.8 °F 30.2 °F 93% 30.22 in 0.8 mi WNW 20.7 mph - 0.02 in Snow Light Snow
3:34 AM 32.0 °F 20.1 °F 30.2 °F 93% 30.23 in 1.0 mi WNW 19.6 mph - 0.02 in Snow Light Snow
3:45 AM 32.0 °F 19.8 °F 30.2 °F 93% 30.23 in 0.8 mi WNW 20.7 mph - 0.03 in Snow Light Snow
3:53 AM 32.0 °F 20.1 °F 30.9 °F 96% 30.33 in 0.8 mi WNW 19.6 mph - 0.03 in Snow Light Snow
4:05 AM 32.0 °F 19.5 °F 30.2 °F 93% 30.25 in 0.8 mi WNW 21.9 mph - 0.01 in Snow Light Snow
4:39 AM 32.0 °F 18.9 °F 30.2 °F 93% 30.25 in 0.5 mi WNW 24.2 mph - 0.04 in Fog , Snow Snow
4:53 AM 30.9 °F 17.8 °F 30.0 °F 96% 30.35 in 0.5 mi WNW 23.0 mph - 0.05 in Fog , Snow Snow
6:53 AM - - - N/A% 30.29 in - North - - N/A   Unknown
7:53 AM - - - N/A% 30.32 in - North - - N/A   Unknown
8:53 AM - - - N/A% 30.34 in - North - - N/A   Unknown
9:38 AM 30.2 °F 16.2 °F 28.4 °F 93% 30.34 in 0.5 mi WNW 25.3 mph - 0.00 in Fog , Snow Snow
9:46 AM 30.2 °F 17.1 °F 28.4 °F 93% 30.34 in 0.5 mi WNW 21.9 mph - N/A Snow Blowing Snow
9:53 AM 30.0 °F 17.2 °F 28.9 °F 96% 30.45 in 0.5 mi WNW 20.7 mph 28.8 mph 0.00 in Fog , Snow Snow
10:12 AM 30.2 °F 16.5 °F 28.4 °F 93% 30.35 in 0.5 mi WNW 24.2 mph - 0.00 in Fog , Snow Snow
10:53 AM 30.0 °F 16.9 °F 28.9 °F 96% 30.47 in 0.5 mi WNW 21.9 mph - 0.01 in Fog , Snow Snow
11:46 AM 30.2 °F 15.9 °F 28.4 °F 93% 30.37 in 0.8 mi WNW 26.5 mph - 0.01 in Snow Light Snow
11:53 AM 30.9 °F 17.8 °F 28.9 °F 92% 30.47 in 0.8 mi WNW 23.0 mph - 0.01 in Snow Light Snow
11:59 AM 30.2 °F - 28.4 °F 93% 30.37 in - North - - 0.00 in   Unknown
12:26 PM 33.8 °F 23.5 °F 26.6 °F 75% 30.36 in 0.5 mi West 16.1 mph - N/A Snow Snow
12:53 PM - - - N/A% 30.37 in - North - - 0.00 in   Unknown
1:17 PM 35.6 °F 26.6 °F 26.6 °F 70% 30.36 in 0.8 mi NW 13.8 mph - N/A Snow Snow
1:39 PM 30.2 °F 16.5 °F 28.4 °F 93% 30.36 in 0.8 mi NW 24.2 mph - 0.00 in Snow Light Snow
1:53 PM 30.9 °F 18.1 °F 28.9 °F 92% 30.46 in 0.8 mi NW 21.9 mph - 0.00 in Snow Light Snow
1:59 PM 30.2 °F 17.8 °F 28.4 °F 93% 30.36 in 0.8 mi WNW 19.6 mph 27.6 mph 0.00 in Snow Light Snow
2:01 PM 32.0 °F 20.5 °F 30.2 °F 93% 30.36 in 0.5 mi WNW 18.4 mph - N/A Snow Snow
2:53 PM 32.0 °F 19.2 °F 28.9 °F 88% 30.45 in 0.8 mi WNW 23.0 mph - 0.00 in Snow Light Snow
2:59 PM 32.0 °F 20.5 °F 30.2 °F 93% 30.34 in 0.8 mi WNW 18.4 mph - N/A Snow Snow
3:42 PM 32.0 °F 20.1 °F 28.4 °F 87% 30.35 in 1.0 mi NW 19.6 mph - 0.00 in Snow Light Snow
3:53 PM 32.0 °F 19.5 °F 28.9 °F 88% 30.46 in 1.2 mi NW 21.9 mph - 0.00 in Snow Light Snow
4:08 PM 32.0 °F - 28.4 °F 87% 30.35 in 1.2 mi North - - 0.00 in Snow Light Snow
4:10 PM 32.0 °F - 28.4 °F 87% 30.36 in - North - - 0.00 in   Unknown
4:53 PM - - - N/A% 30.36 in - North - - 0.00 in   Unknown
5:53 PM 34.0 °F 22.1 °F 27.0 °F 75% 30.46 in 10.0 mi NW 21.9 mph - N/A   Unknown
6:53 PM 34.0 °F 23.0 °F 27.0 °F 75% 30.36 in 10.0 mi WNW 18.4 mph - N/A   Overcast
7:53 PM 34.0 °F 23.8 °F 26.1 °F 73% 30.34 in 10.0 mi WNW 16.1 mph - N/A   Overcast
8:53 PM 35.1 °F 25.5 °F 26.1 °F 70% 30.35 in 10.0 mi NW 15.0 mph - N/A   Overcast
9:53 PM 34.0 °F 23.8 °F 26.1 °F 73% 30.45 in 10.0 mi NW 16.1 mph - N/A   Clear
10:53 PM 34.0 °F 25.5 °F 27.0 °F 75% 30.45 in 10.0 mi WNW 11.5 mph - N/A   Overcast
11:53 PM 33.1 °F 25.5 °F 27.0 °F 78% 30.43 in 10.0 mi NW 9.2 mph - N/A   Clear